TimeCST,TemperatureF,Dew PointF,Humidity,Sea Level PressureIn,VisibilityMPH,Wind Direction,Wind SpeedMPH,Gust SpeedMPH,PrecipitationIn,Events,Conditions,WindDirDegrees,DateUTC
12:15 AM,64.4,60.8,88,30.07,10.0,South,9.2,-,N/A,,Overcast,180,2014-02-19 06:15:00
12:35 AM,64.4,60.8,88,30.06,10.0,South,8.1,-,N/A,,Scattered Clouds,190,2014-02-19 06:35:00
12:55 AM,64.4,60.8,88,30.04,10.0,South,10.4,-,N/A,,Clear,190,2014-02-19 06:55:00
1:15 AM,64.4,60.8,88,30.04,10.0,SSW,9.2,-,N/A,,Clear,200,2014-02-19 07:15:00
1:35 AM,64.4,60.8,88,30.05,10.0,SSW,5.8,-,N/A,,Mostly Cloudy,210,2014-02-19 07:35:00
1:55 AM,64.4,60.8,88,30.06,10.0,SW,4.6,-,N/A,,Overcast,220,2014-02-19 07:55:00
2:15 AM,64.4,60.8,88,30.05,10.0,SSW,5.8,-,N/A,,Overcast,210,2014-02-19 08:15:00
2:35 AM,64.4,60.8,88,30.06,10.0,SW,4.6,-,N/A,,Overcast,220,2014-02-19 08:35:00
2:55 AM,64.4,60.8,88,30.06,10.0,SW,4.6,-,N/A,,Overcast,220,2014-02-19 08:55:00
3:15 AM,64.4,60.8,88,30.06,10.0,SSW,4.6,-,N/A,,Mostly Cloudy,210,2014-02-19 09:15:00
3:35 AM,64.4,60.8,88,30.07,10.0,Calm,Calm,-,N/A,,Overcast,0,2014-02-19 09:35:00
3:55 AM,64.4,60.8,88,30.08,10.0,SW,3.5,-,N/A,,Overcast,220,2014-02-19 09:55:00
4:15 AM,62.6,60.8,94,30.08,10.0,South,3.5,-,N/A,,Overcast,190,2014-02-19 10:15:00
4:35 AM,62.6,60.8,94,30.07,10.0,SSW,4.6,-,N/A,,Overcast,200,2014-02-19 10:35:00
4:55 AM,62.6,60.8,94,30.07,10.0,Calm,Calm,-,N/A,,Overcast,0,2014-02-19 10:55:00
5:15 AM,62.6,60.8,94,30.09,9.0,Calm,Calm,-,N/A,,Overcast,0,2014-02-19 11:15:00
5:35 AM,62.6,59.0,88,30.09,8.0,SSW,3.5,-,N/A,,Mostly Cloudy,210,2014-02-19 11:35:00
5:55 AM,60.8,57.2,88,30.08,4.0,SSE,4.6,-,N/A,,Mostly Cloudy,160,2014-02-19 11:55:00
6:15 AM,59.0,57.2,94,30.08,0.5,South,3.5,-,N/A,,Overcast,170,2014-02-19 12:15:00
6:35 AM,59.0,57.2,94,30.08,0.2,South,5.8,-,N/A,,Overcast,170,2014-02-19 12:35:00
6:55 AM,59.0,57.2,94,30.08,0.2,South,3.5,-,N/A,,Overcast,180,2014-02-19 12:55:00
7:15 AM,59.0,57.2,94,30.08,1.2,South,3.5,-,N/A,,Scattered Clouds,190,2014-02-19 13:15:00
7:35 AM,60.8,59.0,94,30.08,1.5,South,3.5,-,N/A,,Scattered Clouds,170,2014-02-19 13:35:00
7:55 AM,62.6,60.8,94,30.09,7.0,South,3.5,-,N/A,,Clear,190,2014-02-19 13:55:00
8:15 AM,64.4,60.8,88,30.10,10.0,SW,5.8,-,N/A,,Scattered Clouds,220,2014-02-19 14:15:00
8:35 AM,64.4,60.8,88,30.11,10.0,SW,3.5,-,N/A,,Overcast,230,2014-02-19 14:35:00
8:55 AM,64.4,60.8,88,30.11,10.0,SW,4.6,-,N/A,,Overcast,220,2014-02-19 14:55:00
9:15 AM,66.2,60.8,83,30.11,10.0,SSW,6.9,-,N/A,,Overcast,200,2014-02-19 15:15:00
9:35 AM,66.2,60.8,83,30.10,10.0,SSW,5.8,-,N/A,,Overcast,210,2014-02-19 15:35:00
9:55 AM,68.0,60.8,78,30.10,10.0,SW,9.2,-,N/A,,Overcast,220,2014-02-19 15:55:00
10:15 AM,68.0,60.8,78,30.11,10.0,SW,6.9,-,N/A,,Mostly Cloudy,220,2014-02-19 16:15:00
10:35 AM,69.8,60.8,73,30.10,10.0,SW,6.9,-,N/A,,Mostly Cloudy,220,2014-02-19 16:35:00
10:55 AM,71.6,60.8,69,30.10,10.0,South,8.1,-,N/A,,Mostly Cloudy,180,2014-02-19 16:55:00
11:15 AM,71.6,60.8,69,30.09,10.0,South,8.1,-,N/A,,Mostly Cloudy,190,2014-02-19 17:15:00
11:35 AM,75.2,59.0,57,30.08,10.0,WSW,4.6,-,N/A,,Mostly Cloudy,250,2014-02-19 17:35:00
11:55 AM,71.6,57.2,60,30.07,10.0,SW,4.6,-,N/A,,Mostly Cloudy,230,2014-02-19 17:55:00
12:15 PM,73.4,57.2,57,30.05,10.0,South,8.1,-,N/A,,Scattered Clouds,180,2014-02-19 18:15:00
12:35 PM,75.2,55.4,50,30.04,10.0,South,12.7,19.6,N/A,,Mostly Cloudy,190,2014-02-19 18:35:00
12:55 PM,75.2,57.2,53,30.02,10.0,SSW,8.1,-,N/A,,Scattered Clouds,210,2014-02-19 18:55:00
1:15 PM,77.0,55.4,47,30.02,10.0,SW,10.4,-,N/A,,Clear,220,2014-02-19 19:15:00
1:35 PM,77.0,55.4,47,30.00,10.0,South,10.4,-,N/A,,Clear,190,2014-02-19 19:35:00
1:55 PM,77.0,55.4,47,30.00,10.0,South,11.5,17.3,N/A,,Scattered Clouds,180,2014-02-19 19:55:00
2:15 PM,77.0,55.4,47,29.99,10.0,SSW,8.1,18.4,N/A,,Scattered Clouds,210,2014-02-19 20:15:00
2:35 PM,78.8,53.6,42,29.98,10.0,South,9.2,-,N/A,,Scattered Clouds,180,2014-02-19 20:35:00
2:55 PM,75.2,53.6,47,29.98,10.0,SSW,10.4,-,N/A,,Scattered Clouds,210,2014-02-19 20:55:00
3:15 PM,77.0,53.6,44,29.98,10.0,South,9.2,-,N/A,,Mostly Cloudy,190,2014-02-19 21:15:00
3:35 PM,75.2,53.6,47,29.97,10.0,SSW,10.4,-,N/A,,Mostly Cloudy,200,2014-02-19 21:35:00
3:55 PM,75.2,53.6,47,29.98,10.0,South,9.2,-,N/A,,Mostly Cloudy,190,2014-02-19 21:55:00
4:15 PM,77.0,51.8,41,29.98,10.0,SW,10.4,16.1,N/A,,Mostly Cloudy,220,2014-02-19 22:15:00
4:35 PM,75.2,51.8,44,29.98,10.0,South,9.2,-,N/A,,Partly Cloudy,190,2014-02-19 22:35:00
4:55 PM,75.2,53.6,47,29.97,10.0,South,9.2,16.1,N/A,,Clear,190,2014-02-19 22:55:00
5:15 PM,73.4,53.6,50,29.98,10.0,South,9.2,-,N/A,,Partly Cloudy,190,2014-02-19 23:15:00
5:35 PM,73.4,53.6,50,29.98,10.0,SSW,4.6,-,N/A,,Clear,200,2014-02-19 23:35:00
5:55 PM,71.6,53.6,53,29.98,10.0,SSW,4.6,-,N/A,,Partly Cloudy,200,2014-02-19 23:55:00
6:15 PM,69.8,55.4,60,29.98,10.0,South,6.9,-,N/A,,Mostly Cloudy,190,2014-02-20 00:15:00
6:35 PM,69.8,57.2,64,29.98,10.0,South,11.5,-,N/A,,Mostly Cloudy,180,2014-02-20 00:35:00
6:55 PM,69.8,60.8,73,29.98,10.0,South,10.4,18.4,N/A,,Partly Cloudy,180,2014-02-20 00:55:00
7:15 PM,69.8,60.8,73,29.99,10.0,South,9.2,-,N/A,,Clear,180,2014-02-20 01:15:00
7:35 PM,68.0,60.8,78,29.99,10.0,South,12.7,-,N/A,,Clear,180,2014-02-20 01:35:00
7:55 PM,68.0,60.8,78,29.99,10.0,South,11.5,-,N/A,,Clear,180,2014-02-20 01:55:00
8:15 PM,66.2,60.8,83,29.99,10.0,SSE,9.2,-,N/A,,Clear,160,2014-02-20 02:15:00
8:35 PM,66.2,60.8,83,29.99,10.0,South,11.5,-,N/A,,Partly Cloudy,170,2014-02-20 02:35:00
8:55 PM,66.2,60.8,83,29.99,10.0,South,10.4,-,N/A,,Scattered Clouds,170,2014-02-20 02:55:00
9:15 PM,66.2,60.8,83,29.99,10.0,South,11.5,16.1,N/A,,Mostly Cloudy,170,2014-02-20 03:15:00
9:35 PM,66.2,60.8,83,29.99,10.0,South,10.4,-,N/A,,Mostly Cloudy,180,2014-02-20 03:35:00
9:55 PM,64.4,60.8,88,29.99,10.0,South,9.2,-,N/A,,Mostly Cloudy,170,2014-02-20 03:55:00
10:15 PM,66.2,62.6,88,29.99,10.0,SSE,6.9,-,N/A,,Overcast,160,2014-02-20 04:15:00
10:35 PM,64.4,60.8,88,29.99,10.0,South,6.9,-,N/A,,Mostly Cloudy,170,2014-02-20 04:35:00
10:55 PM,64.4,60.8,88,29.98,10.0,SSE,8.1,-,N/A,,Mostly Cloudy,160,2014-02-20 04:55:00
11:15 PM,64.4,62.6,94,29.98,10.0,SSE,9.2,-,N/A,,Overcast,160,2014-02-20 05:15:00
11:35 PM,64.4,62.6,94,29.98,10.0,SSE,8.1,-,N/A,,Overcast,160,2014-02-20 05:35:00
11:55 PM,66.2,62.6,88,29.98,10.0,SSE,9.2,-,N/A,,Overcast,160,2014-02-20 05:55:00